NOAA 16 DEB, 41063

Orbit data source: Space-Track

NOAA 16 DEB, 41063 is space debris in SSO originally from a launch on Thu, 21 Sep 2000 UTC launched from the Air Force Western Test Range (AFWTR). Debris objects in space refer to the collection of defunct objects orbiting the Earth. Examples of debris include non-operational satellites, rocket bodies, and fragments generated from explosions, collisions, or faulty payload assembly.

Loading next visibility...
Identifier
41063, 2000-055W
Orbit
SSO
Country
Flag of USUS
Related business
Manufacturer
Unknown
Mission
Spacecraft
Bus & Motor
Unknown
Mass
Unknown
Launch date (UTC)
2000-09-21 (26 years ago)
Launch vehicle
Unknown
Launch site
Air Force Western Test Range (AFWTR)
Object type
Payload
Rocket body
Debris
Shape & HBR
Unknown shape, 0.1 m
Radar Cross Section
Medium (>0.1 m² and <1 m²)

Expand to show TLE details & history
Last TLE update: 2 days ago

TLE from 2 days ago
0 NOAA 16 DEB
1 41063U 00055W   26171.19460298  .00002042  00000-0  88583-3 0  9993
2 41063  98.7491 252.7696 0021244  68.3152 292.0287 14.25207069545302
Epoch: 2026-06-20T04:40Z
TLE epoch observation values (Epoch: 2026-06-20T04:40:13.697Z)
Latitude
0.00001°
Longitude
-85.70019°
Altitude
805.018 km
Speed
7.454 km/s
True Right ascension
16h 51m 04s
True Declination
0° 00' 00"
Sunlit
Object was in full shadow at epoch
Visualization orbit readout
Latitude
Unknown
Longitude
Unknown
Altitude
Unknown
Speed
Unknown
Apparent Right ascension
Unknown
Apparent Declination
Unknown
Sunlit
N/A
Visualization observer readout
Local Sidereal Time
21:56:56
Azimuth
Unknown
Elevation
Unknown
Doppler factor
Unknown
Orbital elements
Apogee altitude
820.21 km
Perigee altitude
789.69 km
Semi-major axis
7,183.087 km
Eccentricity
0.00212
Inclination
98.7491°
RAAN
252.7696°
Arg. of periapsis
68.3152°
True anomaly
291.80281°
Mean anomaly
292.0287°
Eccentric anomaly
291.91578°
Mean motion
3.56514 °/min
Orbital period
100.98 mins
BSTAR
0.00088583
Loading maneuver chart data...
Computing Atmospheric mass density...
Loading historical data...
Loading historical data...
Loading historical data...
Loading historical data...
Loading historical data...
Loading historical data...
Loading historical data...

Documentation

Showing up to 5 results
|